[[{"header":{"parameterUnit":"m.s-1","parameterCategory":1,"la1":30.2991,"la2":30.254,"lo1":-89.0895,"lo2":-89.0444,"dy":0.0017,"dx":0.0017,"nx":28,"ny":28,"refTime":"2023-07-19T09:00:00:Z","depth":0,"parameterNumber":2,"parameterNumberName":"U-component_of_WINDS"},"data":[0,0,0,0,0,0,0,0,0,0,0,0,0,0,0,0,0,0,0,0,0,0,0,0,0,0,0,0,0,0,0,0,0,0,0,0,0,0,0,0,0,0,0,0,0,0,0,0,0,0,0,0,0,0,0,0,0,0,1.5126,1.5126,0,1.516,1.5161,1.5161,1.5125,1.5124,1.5122,1.5121,1.5159,1.5161,1.5163,0,0,0,0,0,0,0,0,0,0,0,0,0,1.503,1.5032,1.5126,1.5126,1.5127,1.516,1.5161,1.5161,1.5125,1.5123,1.5122,1.512,1.5158,1.5161,1.5164,0,0,0,0,0,0,0,0,0,0,0,0,0,1.5069,1.5033,1.5126,1.5113,1.5112,1.516,1.5161,1.5161,1.5126,1.5123,1.5121,1.5119,1.5157,1.516,1.5164,1.5227,0,0,1.5175,1.5176,0,0,0,0,0,0,0,0,1.5067,1.5073,1.5114,1.5114,1.5113,1.5136,1.5141,1.5183,1.5126,1.5121,1.5121,1.5118,1.5153,1.5157,1.5168,1.5229,1.5231,1.5175,1.5177,1.5178,1.5179,0,0,0,0,0,0,0,1.5064,1.5071,1.514,1.5115,1.5114,1.5106,1.5109,1.5149,1.5148,1.5121,1.5118,1.5123,1.5152,1.5165,1.5169,1.5231,1.5175,1.5178,1.518,1.5181,1.5344,1.5346,0,0,0,0,0,0,1.5063,1.5069,1.5138,1.5141,1.5084,1.5109,1.5112,1.5131,1.5148,1.5148,1.5124,1.5121,1.516,1.5165,1.517,1.5243,1.5178,1.5182,1.5184,1.5341,1.5344,1.5346,0,0,0,0,0,0,1.5061,1.5069,1.5137,1.5104,1.5112,1.5113,1.5134,1.5133,1.5145,1.515,1.515,1.5137,1.5158,1.5165,1.5212,1.5244,1.5183,1.5186,1.5339,1.5342,1.5345,1.5392,0,0,0,0,0,0,1.5058,1.5069,1.5093,1.5105,1.5114,1.5179,1.5136,1.5135,1.5151,1.5146,1.5162,1.5163,1.5157,1.5207,1.5216,1.5248,1.5189,1.5336,1.534,1.5344,1.5388,1.5397,1.5404,0,0,0,0,0,1.5055,1.5106,1.5094,1.5103,1.5144,1.5181,1.5186,1.5178,1.5153,1.5177,1.518,1.5162,1.5239,1.5213,1.5222,1.5255,1.5334,1.5339,1.5344,1.5384,1.5395,1.5404,0,0,0,0,0,0,1.5099,1.5107,1.5095,1.5151,1.5165,1.5175,1.5205,1.519,1.5213,1.5208,1.5197,1.5201,1.5251,1.5258,1.5228,1.5316,1.5283,1.529,1.531,1.532,1.5328,1.5325,1.5192,0,0,0,0,0,1.5115,1.5144,1.515,1.5199,1.5207,1.5205,1.5221,1.5213,1.5228,1.5234,1.5241,1.5257,1.5284,1.5303,1.5329,1.5388,1.5391,1.5416,1.5424,1.5431,1.5437,1.5467,1.5478,1.5363,1.5363,1.5363,0,0,1.515,1.5157,1.5177,1.5208,1.5218,1.5248,1.521,1.5245,1.5267,1.524,1.5284,1.529,1.5307,1.536,1.5384,1.5367,1.5469,1.5437,1.5443,1.5445,1.5474,1.5484,1.5494,1.5366,1.5366,1.5365,0,0,1.5227,1.5236,1.5277,1.5287,1.5302,1.53,1.531,1.5321,1.5323,1.5368,1.5347,1.5374,1.5422,1.5434,1.5447,1.5526,1.5509,1.5535,1.5578,1.5607,1.5616,1.5624,1.5651,1.5661,1.5541,1.5541,1.5541,0,1.5267,1.5311,1.53,1.5335,1.5348,1.5323,1.5364,1.5375,1.5399,1.5409,1.539,1.5448,1.5458,1.5513,1.5531,1.5543,1.5553,1.5533,1.5616,1.5624,1.5631,1.5656,1.5667,1.5544,1.5543,1.5543,1.5543,0,1.536,1.539,1.5421,1.5443,1.546,1.5498,1.5492,1.5511,1.5501,1.5501,1.5545,1.5556,1.5582,1.5595,1.5587,1.5648,1.5637,1.5617,1.5583,1.5645,1.5669,1.5678,1.5548,1.5547,1.5546,1.5545,0,0,1.5467,1.5479,1.5491,1.5499,1.5513,1.5537,1.5573,1.5597,1.5613,1.563,1.5659,1.5699,1.568,1.5694,1.5687,1.5713,1.5773,1.5689,1.569,1.5703,1.584,1.5854,1.5866,1.5762,1.5764,1.5765,1.5838,0,1.5543,1.5604,1.5594,1.5654,1.5681,1.5656,1.5688,1.57,1.57,1.5723,1.5724,1.5752,1.5725,1.5733,1.5758,1.576,1.58,1.5755,1.5789,1.579,1.5785,1.5878,1.5894,1.5962,1.5847,1.5849,1.585,0,1.5641,1.5658,1.572,1.5727,1.5739,1.5767,1.5787,1.581,1.5822,1.5821,1.5835,1.5822,1.5858,1.5823,1.5872,1.5841,1.5854,1.5857,1.586,1.5862,1.5824,1.5882,1.5984,1.5994,1.5865,1.5863,1.5862,0,1.5711,1.5751,1.5792,1.58,1.581,1.583,1.5835,1.5846,1.586,1.5878,1.5887,1.591,1.5922,1.594,1.5933,1.5909,1.5983,1.5948,1.5982,1.5982,1.5999,1.5998,1.6103,1.6009,1.6009,1.6008,1.6008,0,1.5797,1.5835,1.5823,1.5849,1.589,1.5878,1.592,1.5922,1.5931,1.5957,1.5938,1.5962,1.5952,1.5976,1.5971,1.6011,1.6017,1.6017,1.6015,1.6018,1.6018,1.6026,1.6021,1.6011,1.601,1.601,1.6009,0,1.5882,1.5876,1.5919,1.5924,1.5926,1.5957,1.5961,1.5985,1.5983,1.6015,1.6022,1.6019,1.6046,1.6041,1.6071,1.6068,1.6117,1.611,1.6113,1.6111,1.6145,1.6141,1.6258,1.6273,1.617,1.6171,1.6172,0,1.5937,1.5966,1.5973,1.5987,1.5994,1.6018,1.6032,1.6021,1.6036,1.6051,1.6073,1.6097,1.6116,1.616,1.6161,1.6184,1.6176,1.6216,1.618,1.6181,1.6176,1.6174,1.6176,1.6223,1.6224,1.6225,1.6226,0,1.6034,1.6029,1.6049,1.6068,1.6085,1.61,1.6113,1.6126,1.6116,1.6134,1.616,1.6174,1.6203,1.6228,1.6248,1.6254,1.6238,1.6237,1.6246,1.6249,1.6249,1.6248,1.6131,1.6235,1.6234,1.6233,1.6233,1.6232,1.6106,1.6129,1.6137,1.6159,1.6167,1.6179,1.6201,1.6201,1.6222,1.6244,1.6236,1.6265,1.6275,1.6301,1.6309,1.6332,1.6317,1.633,1.6334,1.6337,1.634,1.6246,1.6336,1.6335,1.6335,1.6335,1.6335,0,1.6201,1.6204,1.6225,1.6242,1.626,1.6242,1.6255,1.6271,1.6296,1.6307,1.6325,1.6354,1.6377,1.6379,1.6401,1.6419,1.6412,1.6425,1.6423,1.6424,1.6353,1.6342,1.643,1.643,1.643,1.6429,1.6429,1.6429,1.6252,1.629,1.6285,1.6327,1.633,1.6357,1.6366,1.6377,1.6384,1.6417,1.6435,1.6436,1.6443,1.6464,1.6484,1.6484,1.6493,1.6508,1.6506,1.6439,1.6429,1.642,1.641,1.651,1.6511,1.6575,1.6575,1.6576]},{"header":{"parameterUnit":"m.s-1","parameterCategory":1,"la1":30.2991,"la2":30.254,"lo1":-89.0895,"lo2":-89.0444,"dy":0.0017,"dx":0.0017,"nx":28,"ny":28,"refTime":"2023-07-19T09:00:00:Z","depth":0,"parameterNumber":3,"parameterNumberName":"V-component_of_WINDS"},"data":[0,0,0,0,0,0,0,0,0,0,0,0,0,0,0,0,0,0,0,0,0,0,0,0,0,0,0,0,0,0,0,0,0,0,0,0,0,0,0,0,0,0,0,0,0,0,0,0,0,0,0,0,0,0,0,0,0,0,5.9056,5.9056,0,5.9075,5.9075,5.9075,5.8979,5.8976,5.8974,5.8971,5.8986,5.8989,5.8991,0,0,0,0,0,0,0,0,0,0,0,0,0,5.8933,5.8935,5.9056,5.9056,5.9057,5.9075,5.9075,5.9076,5.898,5.8976,5.8973,5.897,5.8985,5.8988,5.8992,0,0,0,0,0,0,0,0,0,0,0,0,0,5.8972,5.8936,5.9056,5.9011,5.9007,5.9075,5.9075,5.9076,5.898,5.8976,5.8972,5.8968,5.8984,5.8988,5.8992,5.9103,0,0,5.9006,5.9008,0,0,0,0,0,0,0,0,5.897,5.8977,5.9018,5.9014,5.901,5.9021,5.9037,5.9084,5.8981,5.899,5.8971,5.8966,5.9,5.9003,5.9016,5.9103,5.9104,5.9006,5.9009,5.9011,5.9012,0,0,0,0,0,0,0,5.8968,5.8975,5.9063,5.9018,5.9014,5.8989,5.899,5.9046,5.9018,5.8989,5.8982,5.8986,5.8997,5.9012,5.9015,5.9104,5.9006,5.901,5.9013,5.9014,5.9283,5.9287,0,0,0,0,0,0,5.8971,5.8974,5.9063,5.9064,5.898,5.8994,5.8995,5.9021,5.9017,5.9013,5.899,5.8982,5.9006,5.901,5.9015,5.9144,5.9011,5.9015,5.9017,5.9278,5.9284,5.9289,0,0,0,0,0,0,5.8969,5.898,5.9062,5.9017,5.9026,5.9001,5.9031,5.9024,5.9038,5.9018,5.9012,5.9009,5.9003,5.9009,5.9082,5.9143,5.9017,5.9021,5.9273,5.928,5.9286,5.9402,0,0,0,0,0,0,5.8966,5.898,5.9023,5.9019,5.9028,5.913,5.9035,5.9027,5.9046,5.9036,5.9035,5.903,5.9,5.9076,5.9086,5.9147,5.9024,5.9267,5.9276,5.9284,5.9392,5.9412,5.9428,0,0,0,0,0,5.8962,5.9053,5.9025,5.9036,5.9081,5.9133,5.9139,5.9103,5.9052,5.9093,5.9081,5.903,5.9135,5.9084,5.9095,5.9158,5.9263,5.9274,5.9283,5.9384,5.9408,5.9428,0,0,0,0,0,0,5.9062,5.9052,5.9021,5.9114,5.9126,5.9117,5.9168,5.9129,5.9154,5.9143,5.9097,5.9098,5.9178,5.9175,5.9119,5.9264,5.919,5.9203,5.9263,5.9285,5.9303,5.9301,5.9028,0,0,0,0,0,5.9096,5.9141,5.9128,5.9211,5.9219,5.9194,5.9215,5.9187,5.9196,5.92,5.9193,5.9203,5.9237,5.9261,5.9292,5.9392,5.939,5.9441,5.9459,5.9473,5.9484,5.9536,5.9558,5.9322,5.9322,5.9321,0,0,5.9164,5.9164,5.9195,5.9232,5.9237,5.9283,5.9198,5.925,5.9283,5.9207,5.9276,5.9271,5.9279,5.9366,5.9404,5.9366,5.955,5.9486,5.9498,5.9501,5.9549,5.9571,5.9591,5.9328,5.9327,5.9326,0,0,5.9312,5.9317,5.9387,5.9396,5.9406,5.9389,5.9406,5.9404,5.9399,5.9467,5.9411,5.945,5.9511,5.9519,5.9531,5.9685,5.9639,5.9696,5.9789,5.984,5.9859,5.9875,5.9929,5.9949,5.9708,5.9708,5.9708,0,5.9395,5.9464,5.9427,5.9484,5.9501,5.9438,5.9508,5.9517,5.9537,5.955,5.9508,5.9584,5.9585,5.9672,5.971,5.9723,5.974,5.9695,5.9859,5.9875,5.989,5.994,5.9961,5.9715,5.9714,5.9713,5.9713,0,5.9565,5.9613,5.9668,5.9691,5.9715,5.9778,5.975,5.9779,5.975,5.9736,5.9807,5.9806,5.9836,5.9855,5.9826,5.9939,5.9915,5.9868,5.9791,5.992,5.9967,5.9986,5.9725,5.9722,5.972,5.9718,0,0,5.9773,5.9778,5.9798,5.9808,5.9817,5.9853,5.9913,5.9944,5.9969,5.9985,6.0033,6.0088,6.0044,6.0058,6.003,6.0075,6.0196,6.0021,6.0021,6.0053,6.0319,6.0354,6.0377,6.0167,6.0171,6.0173,6.0318,0,5.9917,6.0021,5.9991,6.0095,6.0139,6.008,6.0132,6.0142,6.0132,6.0167,6.0155,6.0194,6.0134,6.0142,6.0185,6.0173,6.0249,6.0162,6.0209,6.0212,6.0208,6.0402,6.0438,6.0575,6.0336,6.0339,6.0342,0,6.0098,6.0124,6.0233,6.0235,6.0252,6.03,6.0326,6.0361,6.0371,6.0361,6.0378,6.0341,6.0398,6.0325,6.0403,6.0344,6.0362,6.036,6.0364,6.0365,6.0283,6.0407,6.0617,6.0638,6.037,6.0368,6.0366,0,6.0238,6.03,6.0373,6.0383,6.0388,6.0423,6.0426,6.0433,6.0454,6.0477,6.049,6.0519,6.0534,6.0557,6.0528,6.0478,6.0611,6.0534,6.0602,6.0603,6.063,6.0629,6.0846,6.0646,6.0645,6.0645,6.0645,0,6.04,6.0468,6.0436,6.0481,6.0556,6.0521,6.0595,6.0592,6.0599,6.064,6.0592,6.0632,6.0592,6.0629,6.0607,6.0674,6.0682,6.0674,6.0667,6.0677,6.0678,6.0687,6.0676,6.065,6.0649,6.0648,6.0647,0,6.0567,6.0549,6.0624,6.0624,6.0625,6.068,6.0679,6.072,6.0707,6.0761,6.0772,6.0751,6.0792,6.0767,6.0807,6.0792,6.088,6.0861,6.0877,6.0871,6.094,6.0933,6.1168,6.1197,6.098,6.0982,6.0984,0,6.0671,6.0723,6.0729,6.0755,6.0762,6.0804,6.0826,6.0794,6.0819,6.0836,6.0874,6.0911,6.0938,6.1006,6.0993,6.1024,6.1004,6.1085,6.1008,6.1017,6.1003,6.1,6.1005,6.1099,6.1102,6.1104,6.1105,0,6.0857,6.0846,6.088,6.0913,6.0941,6.0964,6.0983,6.1007,6.0975,6.1005,6.1047,6.1069,6.1112,6.1148,6.1175,6.1176,6.1135,6.113,6.1147,6.1157,6.1164,6.116,6.0917,6.1124,6.1122,6.1121,6.112,6.1119,6.0994,6.1037,6.1049,6.109,6.1101,6.1121,6.1159,6.1153,6.1188,6.1222,6.1201,6.125,6.126,6.1291,6.1298,6.1335,6.1302,6.1327,6.1333,6.1339,6.1349,6.116,6.134,6.1339,6.1339,6.1338,6.1338,0,6.1176,6.1181,6.1219,6.1249,6.1281,6.1243,6.1263,6.1291,6.1336,6.135,6.1379,6.1427,6.1463,6.1455,6.1487,6.1519,6.1501,6.1528,6.1524,6.1525,6.1377,6.1358,6.1542,6.1542,6.1542,6.1542,6.1542,6.1542,6.1274,6.1346,6.1337,6.1413,6.1417,6.1467,6.1482,6.1499,6.151,6.1567,6.1597,6.1593,6.1598,6.163,6.1661,6.1658,6.1671,6.1705,6.1695,6.1556,6.1535,6.1516,6.1498,6.1709,6.1709,6.184,6.1841,6.1842]}]]